This is the latest recevied weather packets stored in our database for station/object W8CWV-13. If no packets are shown the sender has not sent any weather packets the latest 10 day(s).
| Time | Temp. | Humidity | Pressure | Rain* | Wind** | Luminosity | Snow |
|---|---|---|---|---|---|---|---|
| 1778039638 | 20° C | 100% | 1017 hPa | - | - | - | - |
| 1778039067 | 20.56° C | 100% | 1017.1 hPa | - | - | - | - |
| 1778038494 | 20.56° C | 100% | 1017.1 hPa | - | - | - | - |
| 1778037921 | 20.56° C | 100% | 1017.2 hPa | - | - | - | - |
| 1778037346 | 20.56° C | 100% | 1017.3 hPa | - | - | - | - |
| 1778036773 | 20° C | 100% | 1017.2 hPa | - | - | - | - |
| 1778036197 | 20° C | 100% | 1017.3 hPa | - | - | - | - |
| 1778035620 | 20° C | 100% | 1017.1 hPa | - | - | - | - |
| 1778035049 | 20° C | 100% | 1017.3 hPa | - | - | - | - |
| 1778034475 | 19.44° C | 100% | 1017.4 hPa | - | - | - | - |
| 1778033899 | 19.44° C | 100% | 1017.4 hPa | - | - | - | - |
| 1778033329 | 19.44° C | 100% | 1017.4 hPa | - | - | - | - |
| 1778032756 | 20° C | 100% | 1017.4 hPa | - | - | - | - |
| 1778032182 | 20° C | 100% | 1017.4 hPa | - | - | - | - |
| 1778031611 | 20.56° C | 100% | 1017.3 hPa | - | - | - | - |
| 1778031036 | 21.11° C | 100% | 1017.2 hPa | - | - | - | - |
| 1778030462 | 21.11° C | 100% | 1017.1 hPa | - | - | - | - |
| 1778029891 | 21.67° C | 100% | 1016.9 hPa | - | - | - | - |
| 1778029322 | 21.67° C | 100% | 1016.8 hPa | - | - | - | - |
| 1778028744 | 22.22° C | 100% | 1016.7 hPa | - | - | - | - |
| 1778028174 | 22.22° C | 100% | 1016.5 hPa | - | - | - | - |
| 1778027599 | 22.78° C | 100% | 1016.3 hPa | - | - | - | - |
| 1778027022 | 22.78° C | 100% | 1016.4 hPa | - | - | - | - |
| 1778026449 | 23.33° C | 100% | 1016.1 hPa | - | - | - | - |
| 1778025879 | 23.89° C | 100% | 1015.9 hPa | - | - | - | - |
* Rain since midnight (hover to see other rain measurements)
** Current wind speed in m/s (hover to see current wind gust speed)